FW7968 Weather Reports


Display with metric or nautical units.
time (UTC)temp
F
wind
direction
speed
MPH
gust
MPH
rain 1hr
in
rain 24hr
in
rain mn
in
humidity
%
barometer
mb
20260509053024 46 61 0.0 1.0 0.03 0.12 0.05 95 1012.1
20260509051524 46 342 0.0 0.0 0.03 0.12 0.05 95 1012.2
20260509050026 46 342 0.0 6.0 0.04 0.11 0.04 94 1012.1
20260509044528 46 348 0.0 2.0 0.05 0.10 0.03 94 1012.2
20260509043033 47 294 1.0 2.0 0.04 0.09 0.02 94 1012.1
20260509041533 47 173 0.0 2.0 0.04 0.09 0.02 94 1012.3
20260509040038 47 338 0.0 2.0 0.02 0.07 0.07 94 1012.2
20260509034540 47 238 0.0 2.0 0.01 0.05 0.05 93 1012.3
20260509033040 47 298 0.0 1.0 0.02 0.05 0.05 93 1012.2
20260509031554 47 289 0.0 2.0 0.02 0.05 0.05 91 1012.4
20260509024547 48 71 0.0 5.0 0.03 0.04 0.04 87 1012.7
20260509023049 49 302 0.0 7.0 0.02 0.03 0.03 86 1012.6
20260509021552 49 236 3.0 8.0 0.02 0.03 0.03 84 1012.5
20260509020105 50 279 2.0 9.0 0.02 0.03 0.03 83 1012.4
20260509014557 51 298 2.0 7.0 0.00 0.01 0.01 76 1012.1
20260509013103 52 348 0.0 4.0 0.00 0.01 0.01 74 1012.0
20260509011602 52 272 0.0 4.0 0.00 0.01 0.01 74 1011.7
20260509010104 52 248 0.0 4.0 0.00 0.01 0.01 73 1011.4
20260509004505 52 167 0.0 7.0 0.00 0.01 0.01 72 1011.4
20260509003009 52 63 0.0 7.0 0.00 0.01 0.01 70 1011.4
20260509001511 53 30 1.0 6.0 0.00 0.01 0.01 68 1011.2
20260509000010 53 315 1.0 7.0 0.00 0.01 0.01 66 1011.1
20260508234513 54 267 2.0 6.0 0.00 0.01 0.01 62 1011.0
20260508233013 54 297 0.0 0.0 0.00 0.01 0.01 57 1010.6
20260508231514 55 319 0.0 0.0 0.00 0.01 0.01 55 1010.4
20260508230017 56 305 1.0 2.0 0.00 0.01 0.01 54 1010.2
20260508224518 56 333 0.0 1.0 0.00 0.01 0.01 55 1010.3
20260508223039 56 285 0.0 2.0 0.00 0.01 0.01 52 1010.4
20260508221524 56 136 0.0 2.0 0.00 0.01 0.01 55 1010.4
20260508220026 56 113 1.0 3.0 0.00 0.01 0.01 51 1010.6
20260508214529 56 109 0.0 6.0 0.00 0.01 0.01 52 1010.4
20260508213031 56 45 1.0 7.0 0.00 0.01 0.01 53 1010.5
20260508211534 57 246 2.0 9.0 0.00 0.01 0.01 48 1010.5
20260508210042 58 140 2.0 8.0 0.00 0.01 0.01 49 1010.6
20260508204536 57 338 3.0 10.0 0.00 0.01 0.01 50 1010.8
20260508203042 57 162 2.0 7.0 0.00 0.01 0.01 52 1011.0
20260508201541 56 215 1.0 7.0 0.00 0.01 0.01 54 1011.1
20260508200042 55 205 2.0 9.0 0.00 0.01 0.01 54 1011.2
20260508194545 58 255 2.0 6.0 0.00 0.01 0.01 53 1011.2
20260508193047 56 94 2.0 9.0 0.00 0.01 0.01 58 1011.5
20260508191551 55 155 4.0 10.0 0.00 0.01 0.01 55 1011.8
20260508190052 54 150 1.0 6.0 0.00 0.01 0.01 58 1012.0
20260508184555 54 200 2.0 7.0 0.00 0.01 0.01 58 1012.1
20260508183057 53 166 1.0 7.0 0.00 0.01 0.01 63 1012.1
20260508181600 52 103 2.0 11.0 0.00 0.01 0.01 58 1012.2
20260508174502 52 38 1.0 6.0 0.00 0.01 0.01 70 1012.5
20260508173002 50 52 0.0 7.0 0.00 0.01 0.01 67 1012.9
20260508171509 50 96 3.0 7.0 0.00 0.01 0.01 65 1012.9
20260508170009 50 94 1.0 4.0 0.00 0.01 0.01 70 1012.9
20260508164510 49 98 1.0 6.0 0.00 0.01 0.01 71 1012.9
20260508163017 48 142 3.0 7.0 0.00 0.01 0.01 70 1013.1
20260508161515 49 223 2.0 6.0 0.00 0.01 0.01 67 1013.2
20260508160022 49 210 1.0 8.0 0.00 0.01 0.01 72 1013.3
20260508154520 49 86 2.0 5.0 0.00 0.01 0.01 74 1013.4
20260508153023 48 187 2.0 6.0 0.00 0.01 0.01 72 1013.3
20260508151525 48 161 1.0 6.0 0.00 0.01 0.01 71 1013.1
20260508150048 47 161 3.0 9.0 0.00 0.01 0.01 73 1012.9
20260508144530 47 133 2.0 7.0 0.00 0.01 0.01 74 1013.0
20260508143047 45 252 4.0 8.0 0.00 0.01 0.01 74 1012.9
20260508141536 46 110 3.0 7.0 0.00 0.01 0.01 73 1012.7
20260508140046 47 182 2.0 7.0 0.01 0.01 0.01 71 1012.7
20260508134541 48 247 2.0 7.0 0.01 0.01 0.01 71 1012.5
20260508133042 47 147 2.0 9.0 0.01 0.01 0.01 72 1012.4
20260508131545 47 209 3.0 7.0 0.01 0.01 0.01 75 1012.2
20260508130048 46 28 1.0 5.0 0.00 0.00 0.00 80 1012.3
20260508124550 43 57 1.0 4.0 0.00 0.00 0.00 84 1012.3
20260508123053 39 246 0.0 5.0 0.00 0.00 0.00 87 1012.3
20260508121556 38 142 3.0 5.0 0.00 0.00 0.00 88 1012.3
20260508114601 36 148 0.0 2.0 0.00 0.00 0.00 92 1012.4
20260508113103 35 5 0.0 1.0 0.00 0.00 0.00 93 1012.6
20260508111504 34 319 0.0 1.0 0.00 0.00 0.00 93 1012.7
20260508110005 34 275 0.0 1.0 0.00 0.00 0.00 94 1012.7
20260508104507 33 265 0.0 0.0 0.00 0.00 0.00 94 1012.4
20260508103010 33 265 0.0 0.0 0.00 0.00 0.00 93 1012.5
20260508101512 33 265 0.0 2.0 0.00 0.00 0.00 92 1012.5
20260508100022 34 326 0.0 0.0 0.00 0.00 0.00 91 1012.6
20260508094519 34 320 0.0 0.0 0.00 0.00 0.00 92 1012.4
20260508093019 34 320 0.0 0.0 0.00 0.00 0.00 90 1012.5
20260508091520 35 320 0.0 0.0 0.00 0.00 0.00 89 1012.8
20260508090024 35 320 0.0 0.0 0.00 0.00 0.00 89 1012.7
20260508084525 34 320 0.0 0.0 0.00 0.00 0.00 89 1012.6
20260508083028 35 320 0.0 0.0 0.00 0.00 0.00 89 1012.6
20260508081531 35 320 0.0 0.0 0.00 0.00 0.00 89 1012.5
20260508080052 35 320 0.0 0.0 0.00 0.00 0.00 88 1012.5
20260508074536 35 320 0.0 0.0 0.00 0.00 0.00 87 1012.6
20260508073049 35 320 0.0 0.0 0.00 0.00 0.00 86 1012.5
20260508071544 35 320 0.0 0.0 0.00 0.00 0.00 86 1012.7
20260508070044 36 320 0.0 2.0 0.00 0.00 0.00 85 1012.5
20260508064555 36 292 0.0 0.0 0.00 0.00 0.00 85 1012.6
20260508063052 36 292 0.0 0.0 0.00 0.00 0.00 83 1012.6
20260508061551 37 292 0.0 0.0 0.00 0.00 0.00 81 1012.8
20260508060058 38 292 0.0 1.0 0.00 0.00 0.00 79 1012.8
20260508054558 39 292 0.0 1.0 0.00 0.00 0.00 75 1012.7